Terminal Aerodrome Forecast
Issued by NWS

Home | Current Version | Previous Version | Text Only | Print | Product List | Glossary On
Versions: 1 2 3 4 5 6 7 8 9 10 11 12
000
FTUS45 KABQ 262338
TAFSAF
TAF
KSAF 262338Z 2700/2724 26018G28KT P6SM VCSH BKN080 BKN130
     FM270200 30009KT P6SM VCSH SCT080 BKN130
     FM270900 33007KT P6SM SCT080 SCT130
     FM271700 33015G23KT P6SM SCT080 SCT130
     FM272000 30015G22KT P6SM SCT080=

USA.gov is the U.S. government's official web portal to all federal, state and local government web resources and services.